[[{"header":{"parameterUnit":"m.s-1","parameterCategory":1,"la1":30.2991,"la2":30.254,"lo1":-89.0895,"lo2":-89.0444,"dy":0.0017,"dx":0.0017,"nx":28,"ny":28,"refTime":"2025-12-12T09:00:00:Z","depth":0,"parameterNumber":2,"parameterNumberName":"U-component_of_WINDS"},"data":[0,0,0,0,0,0,0,0,0,0,0,0,0,0,0,0,0,0,0,0,0,0,0,0,0,0,0,0,0,0,0,0,0,0,0,0,0,0,0,0,0,0,0,0,0,0,0,0,0,0,0,0,0,0,0,0,0,0,0.8833,0.8834,0,0.8928,0.8929,0.893,0.89,0.8898,0.8896,0.8894,0.8991,0.8996,0.9,0,0,0,0,0,0,0,0,0,0,0,0,0,0.8627,0.8631,0.8833,0.8834,0.8836,0.8928,0.8929,0.8931,0.89,0.8898,0.8895,0.8893,0.899,0.8995,0.9,0,0,0,0,0,0,0,0,0,0,0,0,0,0.8719,0.8632,0.8833,0.8831,0.8832,0.8928,0.8929,0.8931,0.8901,0.8897,0.8894,0.8892,0.8988,0.8995,0.9001,0.9104,0,0,0.9022,0.9025,0,0,0,0,0,0,0,0,0.8714,0.8726,0.8831,0.8832,0.8833,0.8899,0.8892,0.8989,0.8901,0.8875,0.8894,0.889,0.8963,0.8972,0.8996,0.9108,0.9113,0.9022,0.9026,0.9029,0.9031,0,0,0,0,0,0,0,0.8707,0.8722,0.8871,0.8832,0.8834,0.8827,0.8836,0.8911,0.8935,0.8877,0.8875,0.8886,0.8963,0.899,0.8998,0.9114,0.9022,0.9028,0.9032,0.9035,0.9317,0.9321,0,0,0,0,0,0,0.87,0.8717,0.8868,0.8874,0.8764,0.8833,0.8844,0.8881,0.8934,0.8939,0.8889,0.8885,0.898,0.899,0.9001,0.9126,0.9029,0.9036,0.9039,0.9314,0.9318,0.9322,0,0,0,0,0,0,0.8696,0.8714,0.8864,0.8795,0.8813,0.884,0.8882,0.8884,0.8911,0.8943,0.8947,0.8912,0.8978,0.8992,0.9079,0.9129,0.9039,0.9045,0.931,0.9315,0.932,0.9376,0,0,0,0,0,0,0.869,0.8712,0.8751,0.8796,0.8817,0.8939,0.8885,0.8888,0.8923,0.8918,0.8965,0.897,0.8976,0.9069,0.9086,0.9137,0.905,0.9305,0.9312,0.9318,0.9369,0.9382,0.9393,0,0,0,0,0,0.8683,0.8763,0.8753,0.8772,0.8866,0.8942,0.8955,0.896,0.8927,0.8966,0.8987,0.8969,0.9121,0.9078,0.9097,0.915,0.9302,0.931,0.9318,0.9364,0.938,0.9393,0,0,0,0,0,0,0.8723,0.8769,0.8758,0.8855,0.8895,0.8937,0.8987,0.8976,0.9026,0.9019,0.9024,0.9035,0.9124,0.9146,0.9098,0.9254,0.9207,0.9219,0.9236,0.9251,0.9262,0.9255,0.9056,0,0,0,0,0,0.8743,0.8801,0.8838,0.892,0.894,0.896,0.8994,0.8994,0.9036,0.9053,0.908,0.9121,0.9178,0.9216,0.927,0.9373,0.9383,0.9419,0.9431,0.944,0.945,0.9508,0.9524,0.9347,0.9347,0.9347,0,0,0.8785,0.8817,0.8853,0.8929,0.8959,0.902,0.8975,0.904,0.9085,0.9062,0.9146,0.9168,0.9215,0.931,0.9354,0.9331,0.9502,0.945,0.9458,0.9462,0.9517,0.9534,0.9549,0.9353,0.9352,0.9351,0,0,0.8892,0.8922,0.8994,0.9027,0.9074,0.9088,0.9105,0.9149,0.9163,0.9248,0.9233,0.9287,0.9385,0.9419,0.9449,0.9572,0.9557,0.959,0.9651,0.9707,0.972,0.9733,0.9777,0.9793,0.96,0.96,0.96,0,0.8938,0.9028,0.9033,0.91,0.9134,0.9117,0.9191,0.9222,0.9285,0.931,0.9284,0.9408,0.9438,0.9542,0.9572,0.9597,0.9618,0.9584,0.9718,0.9731,0.9742,0.9785,0.9801,0.9603,0.9603,0.9603,0.9602,0,0.9083,0.9146,0.9198,0.926,0.93,0.9371,0.9387,0.9427,0.9425,0.9441,0.9528,0.9564,0.9626,0.9651,0.9649,0.9756,0.974,0.9716,0.9669,0.9763,0.9803,0.9819,0.9609,0.9607,0.9606,0.9605,0,0,0.9216,0.9281,0.9301,0.9329,0.9382,0.9431,0.9501,0.9562,0.9597,0.9642,0.9701,0.9786,0.9764,0.9799,0.9801,0.985,0.9947,0.982,0.9822,0.9843,1.0067,1.0085,1.0103,0.9938,0.9941,0.9943,1.0063,0,0.9328,0.9451,0.9458,0.957,0.9629,0.9615,0.9676,0.9716,0.9733,0.9786,0.9806,0.9866,0.9833,0.9854,0.9902,0.9925,0.9992,0.9916,0.9993,0.9996,0.9982,1.0124,1.0142,1.0254,1.0079,1.0082,1.0083,0,0.9474,0.9524,0.9642,0.9688,0.9713,0.9768,0.9825,0.9876,0.9921,0.9931,0.997,0.9966,1.0039,0.9991,1.0092,1.004,1.0073,1.0089,1.0093,1.01,1.0045,1.0135,1.0289,1.0306,1.0108,1.0106,1.0104,0,0.956,0.9657,0.974,0.9765,0.9821,0.986,0.9885,0.9927,0.9964,1.0015,1.0039,1.0097,1.0129,1.0175,1.0187,1.015,1.0289,1.024,1.0299,1.0299,1.0328,1.0326,1.049,1.0349,1.0349,1.0349,1.0348,0,0.9684,0.9756,0.978,0.9831,0.9913,0.9921,1.0002,1.0024,1.0063,1.0119,1.0111,1.0163,1.0176,1.0232,1.0242,1.0325,1.034,1.035,1.0352,1.0351,1.0349,1.0371,1.0364,1.0353,1.0352,1.0351,1.035,0,0.9793,0.9811,0.9901,0.9947,0.9961,1.0019,1.0059,1.0109,1.0126,1.0197,1.0214,1.0242,1.0307,1.0324,1.0402,1.0409,1.0507,1.0502,1.0492,1.0492,1.0549,1.0544,1.0733,1.0758,1.0601,1.0603,1.0604,0,0.987,0.9926,0.9979,1.0016,1.0043,1.0102,1.014,1.0152,1.0192,1.0249,1.0292,1.0357,1.0409,1.0514,1.0541,1.0601,1.0597,1.066,1.0606,1.0604,1.0599,1.0595,1.0601,1.0669,1.0671,1.0672,1.0673,0,1.0006,1.0013,1.0068,1.0127,1.0173,1.022,1.0265,1.0296,1.0313,1.0359,1.0426,1.0467,1.0547,1.0612,1.0673,1.0699,1.069,1.069,1.0707,1.0706,1.0698,1.0704,1.0519,1.0686,1.0684,1.0683,1.0683,1.0682,1.0101,1.0151,1.0196,1.0258,1.0294,1.0337,1.0386,1.0411,1.0467,1.0533,1.0537,1.061,1.0656,1.0737,1.0767,1.0825,1.0806,1.083,1.0836,1.0842,1.0847,1.069,1.0836,1.0836,1.0835,1.0835,1.0835,0,1.0237,1.0266,1.0323,1.0387,1.0436,1.0424,1.0474,1.0516,1.0581,1.0624,1.0676,1.0754,1.0817,1.085,1.0913,1.0953,1.0951,1.097,1.0966,1.0973,1.086,1.0839,1.0971,1.0971,1.0971,1.0971,1.0971,1.0971,1.0313,1.0397,1.041,1.0511,1.054,1.0612,1.0641,1.0681,1.0716,1.0804,1.0856,1.0878,1.0918,1.0984,1.1042,1.105,1.1074,1.1095,1.1101,1.0995,1.0981,1.0967,1.0948,1.11,1.11,1.1209,1.121,1.1211]},{"header":{"parameterUnit":"m.s-1","parameterCategory":1,"la1":30.2991,"la2":30.254,"lo1":-89.0895,"lo2":-89.0444,"dy":0.0017,"dx":0.0017,"nx":28,"ny":28,"refTime":"2025-12-12T09:00:00:Z","depth":0,"parameterNumber":3,"parameterNumberName":"V-component_of_WINDS"},"data":[0,0,0,0,0,0,0,0,0,0,0,0,0,0,0,0,0,0,0,0,0,0,0,0,0,0,0,0,0,0,0,0,0,0,0,0,0,0,0,0,0,0,0,0,0,0,0,0,0,0,0,0,0,0,0,0,0,0,0.8767,0.8769,0,0.8987,0.8989,0.8992,0.8988,0.8985,0.8982,0.8979,0.9209,0.9217,0.9226,0,0,0,0,0,0,0,0,0,0,0,0,0,0.8348,0.8355,0.8767,0.8769,0.8772,0.8986,0.8989,0.8992,0.8988,0.8985,0.8981,0.8978,0.9206,0.9216,0.9227,0,0,0,0,0,0,0,0,0,0,0,0,0,0.8545,0.8358,0.8766,0.8796,0.8801,0.8986,0.899,0.8993,0.8989,0.8985,0.898,0.8976,0.9202,0.9215,0.9228,0.94,0,0,0.9269,0.9275,0,0,0,0,0,0,0,0,0.8534,0.856,0.8789,0.8794,0.88,0.8955,0.8926,0.913,0.899,0.8918,0.8979,0.8974,0.9128,0.9147,0.9199,0.9411,0.942,0.927,0.9278,0.9284,0.9288,0,0,0,0,0,0,0,0.852,0.8551,0.8854,0.8792,0.8799,0.88,0.8823,0.8965,0.9045,0.8924,0.8924,0.895,0.913,0.9186,0.9204,0.9424,0.927,0.9282,0.929,0.9295,0.979,0.9795,0,0,0,0,0,0,0.85,0.854,0.8847,0.886,0.8653,0.8811,0.8837,0.891,0.9044,0.906,0.8953,0.8949,0.9165,0.9188,0.9212,0.9424,0.9284,0.9296,0.9304,0.9785,0.9791,0.9797,0,0,0,0,0,0,0.8491,0.8527,0.8838,0.87,0.874,0.8823,0.8905,0.8917,0.8972,0.9066,0.9081,0.8995,0.9163,0.9193,0.9353,0.9432,0.9302,0.9315,0.9779,0.9787,0.9794,0.9848,0,0,0,0,0,0,0.8479,0.8524,0.8589,0.8702,0.8747,0.8975,0.891,0.8924,0.8994,0.899,0.9109,0.9124,0.9161,0.9334,0.9367,0.9448,0.9325,0.9773,0.9783,0.9792,0.984,0.9857,0.9871,0,0,0,0,0,0.8464,0.8596,0.8592,0.8629,0.883,0.8979,0.9005,0.9044,0.9001,0.9068,0.9128,0.9121,0.9417,0.935,0.9387,0.9474,0.9768,0.978,0.9791,0.9833,0.9853,0.9871,0,0,0,0,0,0,0.8491,0.8611,0.8608,0.878,0.887,0.8978,0.9064,0.9064,0.9169,0.9161,0.9206,0.9233,0.9394,0.9449,0.9372,0.9648,0.9587,0.9607,0.9606,0.9627,0.9642,0.9627,0.9336,0,0,0,0,0,0.8517,0.8627,0.8726,0.8868,0.8913,0.8981,0.9047,0.9069,0.9164,0.9202,0.9274,0.9368,0.9482,0.9557,0.9667,0.9846,0.9874,0.9924,0.994,0.9952,0.997,1.0072,1.0096,0.9835,0.9835,0.9835,0,0,0.8572,0.8651,0.8718,0.8876,0.8947,0.9062,0.9013,0.9135,0.9222,0.9221,0.9378,0.9434,0.9541,0.9712,0.9791,0.9764,1.0048,0.9967,0.9976,0.9988,1.0086,1.0111,1.0133,0.9843,0.9842,0.984,0,0,0.8732,0.8801,0.8929,0.9001,0.911,0.9154,0.9185,0.9294,0.9331,0.9488,0.949,0.9594,0.9789,0.9866,0.9931,1.012,1.0118,1.0155,1.0238,1.0337,1.0358,1.0376,1.0447,1.0471,1.0171,1.0171,1.0171,0,0.8788,0.8959,0.8995,0.9119,0.9189,0.9192,0.9323,0.9392,0.9532,0.9581,0.9547,0.9794,0.9866,1.0057,1.0103,1.0154,1.0192,1.0143,1.0351,1.037,1.0388,1.0456,1.0482,1.0175,1.0175,1.0174,1.0174,0,0.9024,0.9143,0.9233,0.9367,0.9447,0.9573,0.963,0.9707,0.9722,0.977,0.9931,1.0017,1.0147,1.0193,1.0208,1.0387,1.0366,1.0341,1.0282,1.0417,1.0481,1.0507,1.0181,1.018,1.0178,1.0177,0,0,0.921,0.9361,0.9394,0.9455,0.9575,0.9669,0.9796,0.9921,0.9988,1.0083,1.0194,1.0359,1.0337,1.041,1.0435,1.0521,1.0669,1.0486,1.0489,1.052,1.0874,1.0894,1.0924,1.0666,1.0671,1.0675,1.0866,0,0.9385,0.961,0.9645,0.9844,0.9956,0.996,1.0071,1.0158,1.0206,1.031,1.0363,1.0481,1.0441,1.0486,1.0571,1.0633,1.0741,1.0619,1.0772,1.0777,1.0749,1.0957,1.0979,1.1155,1.0891,1.0895,1.0898,0,0.9619,0.9721,0.9931,1.0036,1.0085,1.0184,1.0303,1.04,1.0499,1.0528,1.061,1.0624,1.0759,1.0691,1.0878,1.0795,1.0859,1.0899,1.0907,1.0925,1.0849,1.0985,1.1211,1.1239,1.0938,1.0935,1.0932,0,0.9738,0.9927,1.0077,1.0129,1.0256,1.0326,1.0382,1.0477,1.055,1.0653,1.0702,1.082,1.0885,1.0977,1.1024,1.0969,1.1209,1.1144,1.124,1.1239,1.1293,1.129,1.1537,1.1329,1.1328,1.1328,1.1327,0,0.9932,1.0061,1.0132,1.0226,1.0371,1.0411,1.0554,1.0609,1.0692,1.0798,1.0807,1.0906,1.096,1.1067,1.1104,1.1256,1.1284,1.1314,1.1323,1.1315,1.1312,1.1361,1.1351,1.1335,1.1333,1.1332,1.1331,0,1.009,1.0143,1.0308,1.0414,1.0443,1.0546,1.0638,1.0729,1.0776,1.0909,1.0943,1.1018,1.1145,1.1199,1.1355,1.138,1.1555,1.1553,1.1522,1.1526,1.1619,1.1611,1.1909,1.1952,1.1712,1.1714,1.1716,0,1.0212,1.0312,1.0428,1.0498,1.0556,1.067,1.0744,1.0787,1.0865,1.0986,1.1063,1.119,1.1294,1.1497,1.1567,1.1687,1.169,1.1786,1.1709,1.1698,1.1696,1.1691,1.1703,1.1802,1.1804,1.1806,1.1807,0,1.0425,1.0446,1.0552,1.0668,1.0757,1.0851,1.0942,1.1,1.1058,1.1145,1.1274,1.1355,1.1514,1.1641,1.1765,1.1825,1.1828,1.1831,1.186,1.1855,1.1834,1.185,1.1564,1.1825,1.1823,1.1822,1.1821,1.182,1.0571,1.0661,1.0757,1.0875,1.0948,1.1034,1.1126,1.1184,1.1292,1.1425,1.1443,1.1583,1.168,1.1847,1.1912,1.2023,1.1999,1.204,1.2052,1.2062,1.207,1.1813,1.2045,1.2044,1.2044,1.2044,1.2043,0,1.0787,1.0848,1.0957,1.1085,1.1179,1.117,1.1271,1.1351,1.1473,1.1563,1.1665,1.1815,1.1938,1.2017,1.2141,1.2215,1.222,1.2247,1.2244,1.2258,1.2082,1.2046,1.2241,1.2241,1.2241,1.2241,1.2241,1.2241,1.091,1.1062,1.1094,1.1283,1.1344,1.148,1.1539,1.1619,1.1691,1.1857,1.1959,1.2009,1.2096,1.2227,1.234,1.236,1.2407,1.2437,1.2456,1.2291,1.227,1.2251,1.2217,1.2446,1.2446,1.2624,1.2625,1.2626]}]]